Weather History for LFRZ - October, 2012

Change the Weather History Date:

Wednesday, October 3, 2012

  Actual Average Record
Temperature  
Mean Temperature 62 °F -  
Max Temperature 64 °F 60 °F 77 °F (2014)
Min Temperature 60 °F 48 °F 39 °F (2005)
Degree Days  
Heating Degree Days 3    
Growing Degree Days 12 (Base 50)    
Moisture  
Dew Point 57 °F    
Average Humidity 84    
Maximum Humidity 94    
Minimum Humidity 77    
Precipitation  
Precipitation 0.00 in - - ()
Sea Level Pressure  
Sea Level Pressure 29.94 in    
Wind  
Wind Speed 14 mph ()    
Max Wind Speed 23 mph    
Max Gust Speed -    
Visibility 6.2 miles    
Events Rain    
Averages and records for this station are not official NWS values.
T = Trace of Precipitation, MM = Missing Value Source: Averaged Metar Reports

Daily Weather History Graph

Daily Weather History Graph

Search for Another Location

Airport or City:

Trip Planner

Search our weather history database for the weather conditions in past years. The results will help you decide how hot, cold, wet, or windy it might be!

Date:

Astronomy

Oct. 03, 2012 Rise Set
Actual Time 8:10 AM CEST 7:43 PM CEST
Civil Twilight 7:40 AM CEST 8:14 PM CEST
Nautical Twilight 7:04 AM CEST 8:49 PM CEST
Astronomical Twilight 6:28 AM CEST 9:25 PM CEST
Moon 9:09 PM CEST (10/3) 11:36 AM CEST (10/3)
Length of Visible Light 12h 34m
Length of Day
11h 32m
Waning Gibbous, 90% of the Moon is Illuminated
Oct 3
Waning Gibbous
Oct 8
Last Quarter
Oct 15
New
Oct 22
First Quarter
Oct 29
Full

Hourly Weather History & Observations

Time (CEST) Temp. Dew Point Humidity Pressure Visibility Wind Dir Wind Speed Gust Speed Precip Events Conditions
12:00 AM 60.8 °F 55.4 °F 82% 30.01 in 6.2 mi WSW 12.7 mph - N/A   Mostly Cloudy
12:30 AM 60.8 °F 55.4 °F 82% 30.01 in 6.2 mi WSW 13.8 mph - N/A   Scattered Clouds
1:00 AM 60.8 °F 55.4 °F 82% 29.98 in 6.2 mi WSW 12.7 mph - N/A   Unknown
1:30 AM 60.8 °F 55.4 °F 82% 29.98 in 6.2 mi WSW 13.8 mph - N/A   Scattered Clouds
2:00 AM 60.8 °F 55.4 °F 82% 29.98 in 6.2 mi WSW 15.0 mph - N/A   Mostly Cloudy
2:30 AM 60.8 °F 55.4 °F 82% 29.98 in 6.2 mi WSW 16.1 mph - N/A   Mostly Cloudy
3:00 AM 60.8 °F 55.4 °F 82% 29.98 in 6.2 mi WSW 12.7 mph - N/A   Scattered Clouds
3:30 AM 60.8 °F 55.4 °F 82% 29.98 in 6.2 mi WSW 11.5 mph - N/A   Mostly Cloudy
4:00 AM 60.8 °F 55.4 °F 82% 29.98 in 6.2 mi WSW 13.8 mph - N/A   Mostly Cloudy
4:30 AM 60.8 °F 55.4 °F 82% 29.98 in 6.2 mi SW 16.1 mph - N/A   Mostly Cloudy
5:00 AM 60.8 °F 55.4 °F 82% 29.95 in 6.2 mi SW 16.1 mph - N/A   Overcast
5:30 AM 60.8 °F 55.4 °F 82% 29.95 in 6.2 mi SW 15.0 mph - N/A   Mostly Cloudy
6:00 AM 60.8 °F 57.2 °F 88% 29.95 in 6.2 mi SW 15.0 mph - N/A   Mostly Cloudy
6:30 AM 60.8 °F 57.2 °F 88% 29.95 in 6.2 mi WSW 15.0 mph - N/A   Mostly Cloudy
7:00 AM 60.8 °F 55.4 °F 82% 29.95 in 6.2 mi WSW 15.0 mph - N/A   Overcast
7:30 AM 60.8 °F 55.4 °F 82% 29.95 in 6.2 mi WSW 15.0 mph - N/A   Mostly Cloudy
8:00 AM 60.8 °F 57.2 °F 88% 29.95 in 6.2 mi WSW 15.0 mph - N/A   Mostly Cloudy
8:30 AM 60.8 °F 57.2 °F 88% 29.95 in 6.2 mi WSW 13.8 mph - N/A   Mostly Cloudy
9:00 AM 60.8 °F 57.2 °F 88% 29.95 in 6.2 mi SW 13.8 mph - N/A   Mostly Cloudy
9:30 AM 62.6 °F 57.2 °F 82% 29.95 in 6.2 mi SW 16.1 mph - N/A   Mostly Cloudy
10:00 AM 62.6 °F 57.2 °F 82% 29.95 in 6.2 mi SW 16.1 mph - N/A   Mostly Cloudy
10:30 AM 64.4 °F 57.2 °F 77% 29.95 in 6.2 mi SW 18.4 mph - N/A   Overcast
11:00 AM 64.4 °F 59.0 °F 83% 29.95 in 6.2 mi SW 17.3 mph - N/A   Mostly Cloudy
11:30 AM 64.4 °F 59.0 °F 83% 29.95 in 6.2 mi SW 15.0 mph - N/A   Mostly Cloudy
12:00 PM 64.4 °F 57.2 °F 77% 29.95 in 6.2 mi SW 16.1 mph - N/A   Overcast
12:30 PM 64.4 °F 59.0 °F 83% 29.95 in 6.2 mi SW 17.3 mph - N/A   Mostly Cloudy
1:30 PM 64.4 °F 57.2 °F 77% 29.95 in 6.2 mi WSW 23.0 mph - N/A   Mostly Cloudy
2:30 PM 62.6 °F 59.0 °F 88% 29.92 in 6.2 mi SW 17.3 mph - N/A   Mostly Cloudy
3:00 PM 62.6 °F 57.2 °F 82% 29.92 in 6.2 mi SW 16.1 mph - N/A   Scattered Clouds
3:30 PM 64.4 °F 57.2 °F 77% 29.92 in 6.2 mi SW 17.3 mph - N/A   Partly Cloudy
4:30 PM 64.4 °F 57.2 °F 77% 29.92 in 6.2 mi SW 18.4 mph - N/A   Mostly Cloudy
5:30 PM 60.8 °F 57.2 °F 88% 29.89 in 6.2 mi SW 16.1 mph - N/A   Overcast
6:00 PM 60.8 °F 55.4 °F 82% 29.89 in 6.2 mi WSW 16.1 mph - N/A   Scattered Clouds
6:30 PM 60.8 °F 57.2 °F 88% 29.89 in 6.2 mi WSW 16.1 mph - N/A   Unknown
7:00 PM 62.6 °F 57.2 °F 82% 29.89 in 6.2 mi SW 15.0 mph - N/A   Unknown
7:30 PM 62.6 °F 57.2 °F 82% 29.89 in 6.2 mi SW 19.6 mph - N/A Rain Light Rain
8:00 PM 60.8 °F 59.0 °F 94% 29.89 in 6.2 mi WSW 15.0 mph - N/A Rain Light Rain
8:30 PM 60.8 °F 57.2 °F 88% 29.89 in 6.2 mi SW 19.6 mph - N/A   Overcast
9:00 PM 60.8 °F 57.2 °F 88% 29.89 in 6.2 mi WSW 16.1 mph - N/A   Unknown
9:30 PM 60.8 °F 57.2 °F 88% 29.89 in 6.2 mi WSW 12.7 mph - N/A   Overcast
10:00 PM 60.8 °F 57.2 °F 88% 29.89 in 6.2 mi WSW 13.8 mph - N/A   Overcast
10:30 PM 60.8 °F 57.2 °F 88% 29.89 in 6.2 mi SW 12.7 mph - N/A   Mostly Cloudy
11:00 PM 60.8 °F 57.2 °F 88% 29.89 in 6.2 mi SW 15.0 mph - N/A   Overcast
11:30 PM 60.8 °F 57.2 °F 88% 29.89 in - WSW 15.0 mph - N/A Rain Rain